Marion-Critt Cnty AP, Marion,, KY

12:46 PM CDT on June 25, 2017 (GMT -0500)
Marion-Critt Cnty AP, Marion,

Weather History for K5M9 - May, 2014

Change the Weather History Date:

Sunday, May 4, 2014

  Actual Average (KEHR) Record (KEHR)
Temperature  
Mean Temperature 68 °F -  
Max Temperature 84 °F 73 °F 91 °F (1959)
Min Temperature 52 °F 48 °F 33 °F (1954)
Cooling Degree Days 3    
Growing Degree Days 18 (Base 50)    
Moisture  
Dew Point 50 °F    
Average Humidity 52    
Maximum Humidity 80    
Minimum Humidity 29    
Precipitation  
Precipitation 0.00 in - - ()
Sea Level Pressure  
Sea Level Pressure 29.94 in    
Wind  
Wind Speed 6 mph (SW)    
Max Wind Speed 17 mph    
Max Gust Speed 23 mph    
Visibility 10 miles    
Events      
Averages and records for this station are not official NWS values.
T = Trace of Precipitation, MM = Missing Value Source: NWS Daily Summary

Daily Weather History Graph

Daily Weather History Graph

Search for Another Location

Airport or City:

Trip Planner

Search our weather history database for the weather conditions in past years. The results will help you decide how hot, cold, wet, or windy it might be!

Date:

Astronomy

May. 04, 2014 Rise Set
Actual Time 5:54 AM CDT 7:44 PM CDT
Civil Twilight 5:25 AM CDT 8:13 PM CDT
Nautical Twilight 4:51 AM CDT 8:47 PM CDT
Astronomical Twilight 4:15 AM CDT 9:24 PM CDT
Moon 10:18 AM CDT (5/4) No Moon Set
Length of Visible Light 14h 47m
Length of Day
13h 50m
Waxing Crescent, 28% of the Moon is Illuminated
May 4
Waxing Crescent
May 6
First Quarter
May 14
Full
May 21
Last Quarter
May 28
New

Hourly Weather History & Observations

Time (CDT) Temp. Heat Index Dew Point Humidity Pressure Visibility Wind Dir Wind Speed Gust Speed Precip Events Conditions
12:15 AM 58.6 °F - 44.8 °F 60% 29.97 in 10.0 mi South 4.6 mph - N/A   Clear
12:35 AM 58.8 °F - 44.6 °F 59% 29.97 in 10.0 mi SSW 4.6 mph - N/A   Clear
12:55 AM 59.2 °F - 44.8 °F 59% 29.96 in 10.0 mi SSW 4.6 mph - N/A   Clear
1:15 AM 59.2 °F - 45.0 °F 59% 29.96 in 10.0 mi SSW 5.8 mph - N/A   Clear
1:35 AM 57.7 °F - 45.5 °F 64% 29.96 in 10.0 mi SSW 4.6 mph - N/A   Clear
1:55 AM 58.1 °F - 45.5 °F 63% 29.95 in 10.0 mi SSW 4.6 mph - N/A   Clear
2:15 AM 57.4 °F - 46.0 °F 66% 29.95 in 10.0 mi SW 4.6 mph - N/A   Clear
2:35 AM 57.4 °F - 46.4 °F 67% 29.95 in 10.0 mi SW 4.6 mph - N/A   Clear
2:55 AM 55.6 °F - 46.6 °F 72% 29.95 in 10.0 mi SW 4.6 mph - N/A   Clear
3:15 AM 55.9 °F - 46.6 °F 71% 29.95 in 10.0 mi SSW 5.8 mph - N/A   Clear
3:35 AM 55.6 °F - 46.8 °F 72% 29.95 in 10.0 mi SSW 4.6 mph - N/A   Clear
3:55 AM 54.9 °F - 46.8 °F 74% 29.95 in 10.0 mi SSW 5.8 mph - N/A   Clear
4:15 AM 54.7 °F - 46.8 °F 75% 29.95 in 10.0 mi SW 5.8 mph - N/A   Clear
4:35 AM 54.5 °F - 46.8 °F 75% 29.95 in 10.0 mi SSW 5.8 mph - N/A   Clear
4:55 AM 54.7 °F - 46.8 °F 75% 29.96 in 10.0 mi SW 3.5 mph - N/A   Clear
5:15 AM 54.3 °F - 46.8 °F 76% 29.96 in 10.0 mi SW 4.6 mph - N/A   Clear
5:35 AM 53.6 °F - 46.6 °F 77% 29.97 in 10.0 mi SW 4.6 mph - N/A   Clear
5:55 AM 53.6 °F - 46.6 °F 77% 29.98 in 10.0 mi SW 3.5 mph - N/A   Clear
6:15 AM 52.9 °F - 46.8 °F 80% 29.98 in 10.0 mi SW 4.6 mph - N/A   Clear
6:35 AM 54.0 °F - 46.9 °F 77% 29.98 in 10.0 mi SW 4.6 mph - N/A   Clear
6:55 AM 55.8 °F - 47.3 °F 73% 29.99 in 10.0 mi SW 4.6 mph - N/A   Clear
7:15 AM 57.2 °F - 48.2 °F 72% 29.99 in 10.0 mi SW 3.5 mph - N/A   Clear
7:35 AM 59.2 °F - 49.3 °F 70% 29.99 in 10.0 mi SW 4.6 mph - N/A   Clear
7:55 AM 61.5 °F - 49.8 °F 65% 29.99 in 10.0 mi SW 6.9 mph - N/A   Clear
8:15 AM 62.8 °F - 49.3 °F 61% 29.99 in 10.0 mi WSW 8.1 mph - N/A   Clear
8:35 AM 63.9 °F - 50.7 °F 62% 30.00 in 10.0 mi SW 8.1 mph - N/A   Clear
8:55 AM 66.2 °F - 51.8 °F 60% 30.00 in 10.0 mi SW 6.9 mph - N/A   Clear
9:15 AM 67.8 °F - 52.2 °F 57% 30.00 in 10.0 mi WSW 5.8 mph - N/A   Clear
9:35 AM 69.8 °F - 52.5 °F 54% 30.00 in 10.0 mi SW 6.9 mph - N/A   Clear
9:55 AM 71.8 °F - 52.9 °F 51% 30.00 in 10.0 mi WSW 6.9 mph - N/A   Clear
10:15 AM 74.3 °F - 53.1 °F 47% 30.00 in 10.0 mi West 6.9 mph - N/A   Clear
10:35 AM 75.2 °F - 53.8 °F 47% 30.00 in 10.0 mi WSW 8.1 mph - N/A   Clear
10:55 AM 76.3 °F - 53.4 °F 45% 30.01 in 10.0 mi SW 8.1 mph - N/A   Clear
11:15 AM 77.2 °F - 55.4 °F 47% 30.00 in 10.0 mi SSW 6.9 mph - N/A   Clear
11:35 AM 77.9 °F - 54.3 °F 44% 30.00 in 10.0 mi SSW 6.9 mph - N/A   Clear
11:55 AM 78.8 °F - 54.5 °F 43% 30.00 in 10.0 mi SW 8.1 mph - N/A   Clear
12:15 PM 80.1 °F 80.1 °F 54.7 °F 41% 29.99 in 10.0 mi SW 10.4 mph 17.3 mph N/A   Clear
12:35 PM 80.6 °F - 52.3 °F 37% 29.98 in 10.0 mi SW 8.1 mph - N/A   Clear
12:55 PM 81.7 °F 80.9 °F 53.1 °F 37% 29.98 in 10.0 mi SW 8.1 mph 16.1 mph N/A   Clear
1:15 PM 82.0 °F 81.2 °F 53.2 °F 37% 29.97 in 10.0 mi SW 6.9 mph - N/A   Clear
1:35 PM 81.9 °F - 51.4 °F 35% 29.96 in 10.0 mi WSW 8.1 mph - N/A   Clear
1:55 PM 82.6 °F - 50.9 °F 33% 29.95 in 10.0 mi SW 5.8 mph - N/A   Clear
2:15 PM 83.1 °F - 49.8 °F 31% 29.94 in 10.0 mi SW 8.1 mph - N/A   Clear
2:35 PM 83.7 °F - 49.1 °F 30% 29.94 in 10.0 mi WSW 10.4 mph 17.3 mph N/A   Clear
2:55 PM 83.7 °F - 48.6 °F 29% 29.93 in 10.0 mi WSW 9.2 mph 16.1 mph N/A   Clear
3:15 PM 83.8 °F - 50.9 °F 32% 29.92 in 10.0 mi SW 11.5 mph 19.6 mph N/A   Clear
3:35 PM 84.4 °F - 51.3 °F 32% 29.91 in 10.0 mi WSW 6.9 mph - N/A   Clear
4:15 PM 84.4 °F - 49.3 °F 29% 29.90 in 10.0 mi WSW 17.3 mph 23.0 mph N/A   Clear
4:35 PM 84.6 °F - 49.6 °F 30% 29.90 in 10.0 mi SW 9.2 mph 19.6 mph N/A   Clear
4:55 PM 84.7 °F - 49.3 °F 29% 29.89 in 10.0 mi WSW 12.7 mph 19.6 mph N/A   Clear
5:15 PM 84.6 °F - 49.1 °F 29% 29.89 in 10.0 mi WSW 15.0 mph 18.4 mph N/A   Clear
5:35 PM 84.4 °F - 50.0 °F 30% 29.89 in 10.0 mi SW 6.9 mph - N/A   Clear
5:55 PM 84.2 °F - 49.6 °F 30% 29.88 in 10.0 mi SW 9.2 mph - N/A   Clear
6:15 PM 83.3 °F - 50.9 °F 32% 29.87 in 10.0 mi SW 9.2 mph 17.3 mph N/A   Clear
6:35 PM 82.2 °F - 51.1 °F 34% 29.86 in 10.0 mi SW 5.8 mph - N/A   Clear
6:55 PM 81.3 °F - 50.4 °F 34% 29.86 in 10.0 mi SW 5.8 mph - N/A   Clear
7:15 PM 79.2 °F - 50.9 °F 37% 29.86 in 10.0 mi SSW 3.5 mph - N/A   Clear
7:35 PM 77.4 °F - 51.3 °F 40% 29.87 in 10.0 mi Calm Calm - N/A   Clear
7:55 PM 76.1 °F - 51.4 °F 42% 29.88 in 10.0 mi Calm Calm - N/A   Clear
8:15 PM 72.5 °F - 51.6 °F 48% 29.88 in 10.0 mi Calm Calm - N/A   Clear
8:35 PM 71.8 °F - 51.6 °F 49% 29.88 in 10.0 mi South 3.5 mph - N/A   Clear
8:55 PM 72.3 °F - 51.1 °F 47% 29.89 in 10.0 mi South 3.5 mph - N/A   Clear
9:15 PM 69.4 °F - 51.1 °F 52% 29.89 in 10.0 mi Calm Calm - N/A   Clear
9:35 PM 70.0 °F - 50.9 °F 51% 29.89 in 10.0 mi South 3.5 mph - N/A   Clear
9:55 PM 70.0 °F - 50.9 °F 51% 29.89 in 10.0 mi South 4.6 mph - N/A   Clear
10:15 PM 68.4 °F - 51.4 °F 55% 29.89 in 10.0 mi South 3.5 mph - N/A   Clear
10:35 PM 69.8 °F - 50.9 °F 51% 29.89 in 10.0 mi South 5.8 mph - N/A   Clear
10:55 PM 69.1 °F - 50.9 °F 52% 29.89 in 10.0 mi South 4.6 mph - N/A   Clear
11:15 PM 68.9 °F - 50.5 °F 52% 29.89 in 10.0 mi South 4.6 mph - N/A   Clear
11:35 PM 67.8 °F - 50.9 °F 55% 29.88 in 10.0 mi South 4.6 mph - N/A   Clear
11:55 PM 68.0 °F - 50.9 °F 54% 29.88 in 10.0 mi SSW 5.8 mph - N/A   Clear